Find Starlink 31985

NORAD ID: 60036 Int'l Des: 2024-111 Owner: SPXS Country: US Constellation: starlink operational
LEOCIRCULAR

当前视图

正在加载3D地球...

About Starlink 31985

Starlink 31985 (NORAD 60036) is a starlink constellation satellite (v2 mini) launched Jun 8, 2024 by SPXS of US. It operates in LEO, CIRCULAR orbit with a mass of 730.00 kg.

即将过境

Passes for default location (London). Set your location on the main map for personalized predictions.

高度历史

Loading altitude history...

两行轨道根数

1 60036U 24111W 26265.30916899 -.00000224 00000-0 45187-5 0 9999
2 60036 53.1596 241.1520 0001429 88.5918 271.5249 15.34388497129099
Epoch: Sep 22, 2026 • Age: 15 hours

当前状态

高度 474.6 km
远地点 / 近地点 N/A
速度 7.63 km/s
星下点 -35.17°S, 138.14°W
发射日期 Jun 8, 2024
运行时间 2.2 years
类型 internet

技术详情

分类 Payload
质量 730.00 kg
干质量 700.00 kg
长度 0.30 m
跨度 29.00 m
形状 ? Box + pan
制造商 SPXS
平台类型 Starlink V2M
阶段状态 In Orbit
所有者/国家 SPXS/US

Most Searched